Overview Statistics Trail Chart Weather Telemetry Raw packets
 

This is the latest recevied weather packets stored in our database for station/object GBTWP-2. If no packets are shown the sender has not sent any weather packets the latest 10 day(s).

<< 68 69 70 71 72 73 74 >>
Time Temp. Humidity Pressure Rain* Wind** Luminosity Snow
1788197520 23.33° C 90% 1018.5 hPa 0 mm - 166 W/m² -
1788197220 23.33° C 91% 1018.6 hPa 0 mm - 168 W/m² -
1788196920 22.78° C 92% 1018.9 hPa 0 mm - 148 W/m² -
1788196617 22.78° C 93% 1019 hPa 0 mm - 322 W/m² -
1788196320 22.22° C 94% 1019.2 hPa 0 mm - 298 W/m² -
1788196020 22.22° C 94% 1019.3 hPa 0 mm - 191 W/m² -
1788195720 21.67° C 94% 1019.1 hPa 0 mm - 174 W/m² -
1788195420 22.22° C 94% 1019.1 hPa 0 mm - 108 W/m² -
1788195121 22.22° C 95% 1019.1 hPa 0 mm - 66 W/m² -
1788194820 21.67° C 95% 1019.1 hPa 0 mm - 112 W/m² -
1788194520 21.67° C 94% 1019.4 hPa 1.27 mm - 129 W/m² -
1788194220 21.67° C 94% 1019.5 hPa 1.27 mm - 114 W/m² -
1788193920 21.67° C 94% 1019.6 hPa 0 mm - 103 W/m² -
1788193620 21.67° C 94% 1019.7 hPa 1.78 mm - 65 W/m² -
1788193320 21.67° C 93% 1020.2 hPa 1.78 mm - 41 W/m² -
1788193020 21.67° C 93% 1020.3 hPa 1.27 mm - 37 W/m² -
1788192721 21.67° C 92% 1020.5 hPa 3.05 mm - 31 W/m² -
1788192420 21.67° C 91% 1020.9 hPa 4.83 mm - 28 W/m² -
1788192120 22.22° C 89% 1020.9 hPa 3.05 mm - 37 W/m² -
1788191821 22.22° C 88% 1021.3 hPa 3.05 mm - 34 W/m² -
1788191520 22.78° C 86% 1021.2 hPa 3.05 mm - 29 W/m² -
1788191220 23.33° C 85% 1021.4 hPa 1.27 mm - 39 W/m² -
1788190920 23.33° C 83% 1021.2 hPa 0 mm - 51 W/m² -
1788190620 23.89° C 80% 1021.2 hPa 0 mm - 65 W/m² -
1788190320 23.89° C 80% 1021.1 hPa 0 mm - 77 W/m² -

* Rain latest hour (hover to see other rain measurements)
** Current wind speed in m/s (hover to see current wind gust speed)